Location: Acheville
(50.3840°N, 2.8827°E)
Time: 03:59:14
(UTC+00:00)

ATLAS 3B R/B - Pass Details

Date: 24 October 2021
Orbit: 989 x 1206 km, 63.8° (Epoch: 25 November)

Event Time Altitude Azimuth Distance (km) Brightness Sun altitude
Rises 19:33:07 0° 286° (WNW) 3,795 6.9 -28.3°
Reaches altitude 10° 19:36:10 10° 299° (WNW) 2,875 5.9 -28.7°
Maximum altitude 19:41:51 27° 356° (N) 1,951 4.2 -29.6°
Enters shadow 19:44:27 22° 28° (NNE) 2,208 4.2 -30.0°
